NOAA NWS Hourly Roundups by Site

Regional Weather Roundup for Omaha, NE

To Select Another Site Choose from List

Select Site:  

000
ASUS43 KOAX 251310
RWRNE

WEATHER ROUNDUP FOR NEBRASKA
NATIONAL WEATHER SERVICE OMAHA NE
800 AM CDT SUN OCT 25 2020

NOTES: SATELLITE DATA IS BEING USED TO AUGMENT CLOUD COVER ABOVE
       12000 FEET.
       "FAIR" INDICATES FEW OR NO CLOUDS BELOW 12,000 FEET WITH NO
       SIGNIFICANT WEATHER AND/OR OBSTRUCTIONS TO VISIBILITY.


NEZ001>004-019>022-054>056-251400-
NEBRASKA PANHANDLE

CITY           SKY/WX    TMP DP  RH WIND       PRES   REMARKS
SCOTTSBLUFF    CLOUDY    16  12  84 N12       30.28R FOG     WCI   3
ALLIANCE       CLOUDY    16  11  80 N20       30.26R HAZE    WCI  -1
CHADRON        CLOUDY    16  32 100 N13       30.35S FOG     WCI   2
GORDON         LGT SNOW  16  12  86 N13       30.30R WCI   2
KIMBALL        LGT SNOW  13  10  87 N17G23    30.18R WCI  -3
SIDNEY         LGT SNOW  16  12  84 N15       30.19R FOG     WCI   1
$$

NEZ057>060-069>072-079>082-251400-
SOUTHWEST NEBRASKA

CITY           SKY/WX    TMP DP  RH WIND       PRES   REMARKS
NORTH PLATTE   CLOUDY    23  18  81 N13       30.25R WCI  11
IMPERIAL       FRZ RAIN  28  26  92 NE13      30.18R WCI  17
LEXINGTON      CLOUDY    25  22  87 N12       30.24R WCI  14
MCCOOK         CLOUDY    26  24  92 NE16      30.21R FOG     WCI  14
OGALLALA       LGT SNOW  22  20  91 NE14      30.24R WCI   9
$$

NEZ005>010-023>029-035>040-094-251400-
NORTH CENTRAL NEBRASKA

CITY           SKY/WX    TMP DP  RH WIND       PRES   REMARKS
VALENTINE      LGT SNOW  21  16  81 N10       30.34R WCI  10
AINSWORTH      LGT SNOW  21  19  93 N9        30.32R WCI  11
BROKEN BOW     CLOUDY    23  20  88 N14       30.26R WCI  11
O`NEILL        LGT SNOW  23  20  89 N8        30.32R WCI  14
ORD            CLOUDY    24  20  84 N8        30.28R WCI  15
THEDFORD       LGT SNOW  21  19  91 N6        30.29R WCI  13
$$

NEZ041-046>049-061>064-073>077-083>087-251400-
SOUTH CENTRAL NEBRASKA

CITY           SKY/WX    TMP DP  RH WIND       PRES   REMARKS
GRAND ISLAND   CLOUDY    26  21  81 N13       30.26R WCI  15
AURORA         CLOUDY    27  25  91 N14       30.25R WCI  16
HASTINGS       CLOUDY    27  23  85 N15       30.23S WCI  15
HEBRON         CLOUDY    32  27  80 N12       30.22S WCI  23
HOLDREGE       CLOUDY    27  24  89 N15       30.22S WCI  15
KEARNEY        CLOUDY    25  22  88 N16       30.25R WCI  12
YORK           CLOUDY    27  25  93 N13       30.24R WCI  16
$$

NEZ011>018-030>034-042>045-251400-
NORTHEAST NEBRASKA

CITY           SKY/WX    TMP DP  RH WIND       PRES   REMARKS
NORFOLK        LGT SNOW  25  21  85 N10       30.28R VSB 1   WCI  15
ALBION         LGT SNOW  25  22  89 N6        30.28R WCI  18
BLAIR          CLOUDY    29  26  88 N9        30.24R WCI  21
COLUMBUS       MIX PCPN  27  24  89 N10       30.27F WCI  17
FREMONT        CLOUDY    30  26  84 N5        30.26S WCI  25
TEKAMAH        CLOUDY    28  25  88 N10       30.28S WCI  19
WAYNE          LGT SNOW  25  23  91 N9        30.29R WCI  16
$$

NEZ050>053-065>068-078-088>093-251400-
SOUTHEAST NEBRASKA

CITY           SKY/WX    TMP DP  RH WIND       PRES   REMARKS
LINCOLN        CLOUDY    30  24  78 N14       30.25S WCI  19
OMAHA EPPLEY   CLOUDY    32  25  75 N12       30.25S WCI  23
BEATRICE       CLOUDY    32  29  90 N10       30.21F WCI  24
FALLS CITY     CLOUDY    36  30  79 N7        30.19S WCI  30
NEBRASKA CITY  CLOUDY    33  30  88 NE12      30.21S WCI  25
PLATTSMOUTH    CLOUDY    33  26  76 N7        30.23S WCI  26
$$

NEZ044-045-051>053-067-251400-
OMAHA AREA

CITY           SKY/WX    TMP DP  RH WIND       PRES   REMARKS
OMAHA EPPLEY   CLOUDY    32  25  75 N12       30.25S WCI  23
BLAIR          CLOUDY    29  26  88 N9        30.24R WCI  21
FREMONT        CLOUDY    30  26  84 N5        30.26S WCI  25
MILLARD        CLOUDY    33  24  71 N6        30.25S WCI  27
OFFUTT AFB     CLOUDY    33  24  71 NE9       30.23S WCI  25
PLATTSMOUTH    CLOUDY    33  26  76 N7        30.23S WCI  26
WAHOO          CLOUDY    30  27  88 N10       30.25F WCI  21
$$


 

View Past Reports for Omaha, NE.

Products Courtesy of NOAA-NWS
NWS Information Parsing Script by Ken True at Saratoga Weather - Script by SE Lincoln Weather.